Weather History for La Grande, OR

Change the Weather History Date:

Sunday, August 25, 2013

  Actual Average Record
Temperature  
Mean Temperature 69 °F -  
Max Temperature 87 °F 81 °F 101 °F (1966)
Min Temperature 51 °F 47 °F 34 °F (1980)
Cooling Degree Days 4    
Growing Degree Days 19 (Base 50)    
Moisture  
Dew Point 42 °F    
Average Humidity 42    
Maximum Humidity 59    
Minimum Humidity 22    
Precipitation  
Precipitation 0.03 in - - ()
Sea Level Pressure  
Sea Level Pressure 29.90 in    
Wind  
Wind Speed 8 mph (WNW)    
Max Wind Speed 31 mph    
Max Gust Speed 39 mph    
Visibility 10 miles    
Events Thunderstorm    
Averages and records for this station are not official NWS values.
T = Trace of Precipitation, MM = Missing Value Source: NWS Daily Summary

Daily Weather History Graph

Daily Weather History Graph

Search for Another Location

Airport:

Trip Planner

Search our weather history database for the weather conditions in past years. The results will help you decide how hot, cold, wet, or windy it might be!

Date:

Astronomy

Aug. 25, 2013 Rise Set
Actual Time 6:05 AM PDT 7:41 PM PDT
Civil Twilight 5:34 AM PDT 8:12 PM PDT
Nautical Twilight 4:56 AM PDT 8:50 PM PDT
Astronomical Twilight 4:16 AM PDT 9:30 PM PDT
Moon 9:57 PM PDT (8/25) 11:29 AM PDT (8/25)
Length of Visible Light 14h 37m
Length of Day
13h 35m
Waning Gibbous, 75% of the Moon is Illuminated
Aug 25
Waning Gibbous
Aug 28
Last Quarter
Sep 5
New
Sep 12
First Quarter
Sep 19
Full

Hourly Weather History & Observations

Time (PDT) Temp. Dew Point Humidity Pressure Visibility Wind Dir Wind Speed Gust Speed Precip Events Conditions
12:15 AM 64.4 °F 41.0 °F 42% 29.91 in 10.0 mi WNW 13.8 mph - N/A   Clear
12:35 AM 64.4 °F 41.0 °F 42% 29.91 in 10.0 mi WNW 10.4 mph - N/A   Clear
12:55 AM 62.6 °F 41.0 °F 45% 29.91 in 10.0 mi NW 9.2 mph - N/A   Clear
1:15 AM 62.6 °F 39.2 °F 42% 29.91 in 10.0 mi NNW 11.5 mph - N/A   Clear
1:35 AM 60.8 °F 39.2 °F 45% 29.92 in 10.0 mi North 8.1 mph - N/A   Clear
1:55 AM 60.8 °F 39.2 °F 45% 29.91 in 10.0 mi NNW 9.2 mph - N/A   Clear
2:15 AM 59.0 °F 39.2 °F 48% 29.91 in 10.0 mi North 10.4 mph - N/A   Scattered Clouds
2:35 AM 59.0 °F 41.0 °F 51% 29.91 in 10.0 mi North 13.8 mph - N/A   Mostly Cloudy
2:55 AM 60.8 °F 39.2 °F 45% 29.91 in 10.0 mi North 12.7 mph - N/A   Mostly Cloudy
3:15 AM 60.8 °F 39.2 °F 45% 29.91 in 10.0 mi North 10.4 mph - N/A   Overcast
3:35 AM 57.2 °F 39.2 °F 51% 29.91 in 10.0 mi WNW 6.9 mph - N/A   Overcast
3:55 AM 57.2 °F 39.2 °F 51% 29.91 in 10.0 mi NNW 9.2 mph - N/A   Scattered Clouds
4:15 AM 57.2 °F 39.2 °F 51% 29.92 in 10.0 mi West 9.2 mph - N/A   Mostly Cloudy
4:35 AM 60.8 °F 41.0 °F 48% 29.92 in 10.0 mi NW 6.9 mph - N/A   Overcast
4:55 AM 55.4 °F 39.2 °F 54% 29.93 in 10.0 mi WNW 4.6 mph - N/A   Overcast
5:15 AM 55.4 °F 39.2 °F 54% 29.93 in 10.0 mi SSE 3.5 mph - N/A   Scattered Clouds
5:35 AM 55.4 °F 37.4 °F 51% 29.93 in 10.0 mi Calm Calm - N/A   Clear
5:55 AM 53.6 °F 37.4 °F 54% 29.94 in 10.0 mi SW 5.8 mph - N/A   Clear
6:15 AM 51.8 °F 37.4 °F 58% 29.94 in 10.0 mi Calm Calm - N/A   Clear
6:35 AM 53.6 °F 37.4 °F 54% 29.94 in 10.0 mi SW 3.5 mph - N/A   Clear
6:55 AM 51.8 °F 37.4 °F 58% 29.95 in 10.0 mi Calm Calm - N/A   Clear
7:15 AM 53.6 °F 39.2 °F 58% 29.96 in 10.0 mi Calm Calm - N/A   Clear
7:35 AM 55.4 °F 39.2 °F 54% 29.96 in 10.0 mi Calm Calm - N/A   Clear
7:55 AM 55.4 °F 41.0 °F 58% 29.96 in 10.0 mi Calm Calm - N/A   Clear
8:15 AM 57.2 °F 42.8 °F 59% 29.96 in 10.0 mi Calm Calm - N/A   Clear
8:35 AM 60.8 °F 42.8 °F 52% 29.95 in 10.0 mi Calm Calm - N/A   Clear
8:55 AM 60.8 °F 42.8 °F 52% 29.96 in 10.0 mi Calm Calm - N/A   Clear
9:15 AM 62.6 °F 42.8 °F 48% 29.96 in 10.0 mi Calm Calm - N/A   Clear
9:35 AM 62.6 °F 42.8 °F 48% 29.96 in 10.0 mi Calm Calm - N/A   Clear
9:55 AM 64.4 °F 44.6 °F 49% 29.96 in 10.0 mi NW 3.5 mph - N/A   Clear
10:15 AM 66.2 °F 42.8 °F 43% 29.95 in 10.0 mi Calm Calm - N/A   Clear
10:35 AM 66.2 °F 44.6 °F 46% 29.95 in 10.0 mi Calm Calm - N/A   Clear
10:55 AM 69.8 °F 44.6 °F 40% 29.94 in 10.0 mi Calm Calm - N/A   Clear
11:15 AM 69.8 °F 44.6 °F 40% 29.94 in 10.0 mi NE 3.5 mph - N/A   Clear
11:35 AM 69.8 °F 44.6 °F 40% 29.93 in 10.0 mi North 5.8 mph - N/A   Clear
11:55 AM 71.6 °F 44.6 °F 38% 29.91 in 10.0 mi North 4.6 mph - N/A   Clear
12:15 PM 73.4 °F 46.4 °F 38% 29.90 in 10.0 mi NE 4.6 mph - N/A   Clear
12:35 PM 75.2 °F 46.4 °F 36% 29.89 in 10.0 mi East 3.5 mph - N/A   Clear
12:55 PM 77.0 °F 46.4 °F 34% 29.88 in 10.0 mi ENE 5.8 mph - N/A   Clear
1:15 PM 80.6 °F 48.2 °F 32% 29.87 in 10.0 mi SSE 3.5 mph - N/A   Clear
1:35 PM 80.6 °F 46.4 °F 30% 29.86 in 10.0 mi SE 4.6 mph - N/A   Clear
1:55 PM 82.4 °F 46.4 °F 28% 29.85 in 10.0 mi SSE 4.6 mph - N/A   Clear
2:15 PM 82.4 °F 46.4 °F 28% 29.84 in 10.0 mi SSE 6.9 mph - N/A   Clear
2:35 PM 86.0 °F 46.4 °F 25% 29.83 in 10.0 mi SSW 17.3 mph 23.0 mph N/A   Clear
2:55 PM 87.8 °F 44.6 °F 22% 29.82 in 10.0 mi South 12.7 mph 24.2 mph N/A   Clear
3:15 PM 87.8 °F 44.6 °F 22% 29.82 in 10.0 mi South 13.8 mph 23.0 mph N/A   Clear
3:35 PM 86.0 °F 42.8 °F 22% 29.81 in 10.0 mi South 13.8 mph - N/A   Clear
3:55 PM 84.2 °F 42.8 °F 23% 29.81 in 10.0 mi South 12.7 mph 18.4 mph N/A   Partly Cloudy
4:15 PM 78.8 °F 39.2 °F 24% 29.83 in 9.0 mi WSW 15.0 mph 36.8 mph N/A   Mostly Cloudy
4:35 PM 80.6 °F 42.8 °F 26% 29.80 in 10.0 mi SSW 5.8 mph - N/A Thunderstorm Scattered Clouds
4:55 PM 82.4 °F 44.6 °F 26% 29.80 in 10.0 mi SW 9.2 mph - N/A   Clear
5:15 PM 84.2 °F 44.6 °F 25% 29.80 in 10.0 mi SW 8.1 mph - N/A   Clear
5:35 PM 84.2 °F 44.6 °F 25% 29.80 in 10.0 mi SW 5.8 mph - N/A   Clear
5:55 PM 84.2 °F 41.0 °F 22% 29.81 in 10.0 mi WSW 8.1 mph - N/A   Clear
6:15 PM 80.6 °F 41.0 °F 24% 29.83 in 9.0 mi West 26.5 mph 35.7 mph N/A   Clear
6:35 PM 75.2 °F 42.8 °F 31% 29.84 in 10.0 mi WNW 26.5 mph 36.8 mph N/A   Clear
6:55 PM 73.4 °F 41.0 °F 31% 29.85 in 10.0 mi WNW 29.9 mph 39.1 mph N/A   Partly Cloudy
7:15 PM 69.8 °F 42.8 °F 38% 29.86 in 7.0 mi WNW 31.1 mph 39.1 mph N/A   Mostly Cloudy
7:35 PM 69.8 °F 42.8 °F 38% 29.89 in 10.0 mi NW 26.5 mph 32.2 mph N/A   Mostly Cloudy
7:55 PM 68.0 °F 42.8 °F 40% 29.90 in 10.0 mi NNW 21.9 mph 27.6 mph N/A   Scattered Clouds
8:15 PM 66.2 °F 42.8 °F 43% 29.94 in 10.0 mi NNW 13.8 mph 18.4 mph N/A   Clear
8:35 PM 68.0 °F 42.8 °F 40% 29.95 in 10.0 mi NW 9.2 mph - N/A   Mostly Cloudy
8:55 PM 66.2 °F 42.8 °F 43% 29.95 in 10.0 mi North 4.6 mph - N/A Thunderstorm Mostly Cloudy
9:15 PM 66.2 °F 42.8 °F 43% 29.94 in 10.0 mi NW 6.9 mph - N/A   Mostly Cloudy
9:35 PM 66.2 °F 42.8 °F 43% 29.96 in 10.0 mi West 3.5 mph - N/A Thunderstorm Overcast
9:55 PM 62.6 °F 44.6 °F 52% 29.95 in 10.0 mi SSW 3.5 mph - N/A   Mostly Cloudy
10:15 PM 60.8 °F 42.8 °F 52% 29.95 in 10.0 mi West 4.6 mph - N/A   Partly Cloudy
10:35 PM 60.8 °F 42.8 °F 52% 29.96 in 10.0 mi SSW 3.5 mph - N/A   Clear
10:55 PM 59.0 °F 42.8 °F 55% 29.95 in 10.0 mi Calm Calm - N/A   Clear
11:15 PM 59.0 °F 42.8 °F 55% 29.94 in 10.0 mi WNW 5.8 mph - N/A   Clear
11:35 PM 57.2 °F 39.2 °F 51% 29.94 in 10.0 mi NNE 5.8 mph - N/A   Clear
11:55 PM 53.6 °F 39.2 °F 58% 29.95 in 10.0 mi SSE 4.6 mph - N/A   Clear